AWG105Y LROP-LRSB

Flight info

Callsign AWG105Y
Flight time N/A
Altitude 20000
Route BUKEL DCT PELUR DCT EDETA
Aircraft A20N/M-SDE2E3FGHIRWXY/LB1

Departure

Time 2026-05-01 13:33
Airport Bucharest Henri Coandă International Airport (LROP)

Arrival

Time N/A
Airport Sibiu International Airport (LRSB)
Time Latitude Longitude Altitude Speed Heading
2026-05-01 13:13 44.56859 26.08721 320 ft 0 kts 174°
2026-05-01 13:21 44.56864 26.08720 320 ft 1 kts 174°
2026-05-01 13:21 44.56870 26.08719 320 ft 1 kts 174°
2026-05-01 13:21 44.56877 26.08718 320 ft 1 kts 174°
2026-05-01 13:21 44.56885 26.08717 317 ft 1 kts 174°
2026-05-01 13:22 44.56893 26.08716 318 ft 1 kts 174°
2026-05-01 13:22 44.56900 26.08715 319 ft 1 kts 174°
2026-05-01 13:22 44.56908 26.08714 318 ft 1 kts 174°
2026-05-01 13:22 44.56916 26.08713 318 ft 1 kts 191°
2026-05-01 13:23 44.56923 26.08716 319 ft 1 kts 213°
2026-05-01 13:23 44.56929 26.08722 319 ft 1 kts 234°
2026-05-01 13:23 44.56933 26.08731 319 ft 0 kts 259°
2026-05-01 13:26 44.56929 26.08696 319 ft 8 kts 259°
2026-05-01 13:27 44.56910 26.08566 320 ft 18 kts 254°
2026-05-01 13:27 44.56865 26.08358 320 ft 26 kts 239°
2026-05-01 13:27 44.56707 26.07768 322 ft 38 kts 253°
2026-05-01 13:28 44.56586 26.07667 322 ft 0 kts 148°
2026-05-01 13:30 44.56465 26.07764 321 ft 9 kts 69°
2026-05-01 13:31 44.56470 26.07794 321 ft 0 kts 80°
2026-05-01 13:31 44.56535 26.08624 319 ft 104 kts 82°
2026-05-01 13:32 44.56762 26.11495 546 ft 175 kts 82°
2026-05-01 13:33 44.57103 26.16444 2634 ft 177 kts 82°
2026-05-01 13:33 44.57339 26.20194 3196 ft 199 kts 87°
2026-05-01 13:34 44.56586 26.23795 3656 ft 198 kts 137°
2026-05-01 13:34 44.54009 26.24308 3986 ft 204 kts 212°
2026-05-01 13:35 44.52654 26.20859 4052 ft 221 kts 268°
2026-05-01 13:35 44.52300 26.18711 3849 ft 227 kts 256°
2026-05-01 13:35 44.50822 26.14842 3634 ft 225 kts 242°
2026-05-01 13:36 44.50236 26.12845 3558 ft 220 kts 260°
2026-05-01 13:36 44.50036 26.10718 3535 ft 214 kts 269°
2026-05-01 13:36 44.50027 26.06848 3667 ft 178 kts 276°
2026-05-01 13:37 44.50070 26.05199 3676 ft 162 kts 277°
2026-05-01 13:37 44.50156 26.03676 3623 ft 162 kts 285°
2026-05-01 13:37 44.50297 26.02155 3599 ft 151 kts 283°
2026-05-01 13:37 44.50615 26.00718 3597 ft 159 kts 304°
2026-05-01 13:38 44.52065 25.98481 3704 ft 151 kts 332°
2026-05-01 13:38 44.52969 25.97743 3641 ft 154 kts 344°
2026-05-01 13:38 44.53976 25.97296 3398 ft 145 kts 354°
2026-05-01 13:39 44.54926 25.97463 3251 ft 134 kts 18°
2026-05-01 13:39 44.55737 25.98099 2919 ft 138 kts 44°
2026-05-01 13:39 44.56305 25.99195 2588 ft 139 kts 62°
2026-05-01 13:39 44.56638 26.00452 2254 ft 137 kts 67°
2026-05-01 13:40 44.57056 26.01647 1987 ft 136 kts 70°
2026-05-01 13:40 44.57223 26.02960 1628 ft 140 kts 83°
2026-05-01 13:40 44.57281 26.04359 1272 ft 139 kts 83°
2026-05-01 13:40 44.57408 26.05658 925 ft 135 kts 78°
2026-05-01 13:41 44.57555 26.06951 598 ft 132 kts 82°
2026-05-01 13:41 44.57643 26.08203 384 ft 123 kts 83°
2026-05-01 13:41 44.57728 26.09301 316 ft 84 kts 83°
2026-05-01 13:41 44.57776 26.09904 320 ft 52 kts 82°
2026-05-01 13:42 44.57751 26.10022 321 ft 1 kts 209°
2026-05-01 13:42 44.57749 26.10015 321 ft 0 kts 230°